Wind_Speed
26 28 30 31 33 34 36 38 39 41 42 43 44 44 44 43 43 43 44 44 44 44 44 44 43 42 41 41 40 38 36 35 34 32 32 32 32 33 34 33 33 32
30 32 34 35 35 36 37 39 40 42 43 44 44 44 44 44 43 43 43 44 44 44 44 44 43 42 42 42 41 40 38 36 34 31 31 31 32 33 34 34 34 33
32 33 34 35 35 36 37 38 40 41 42 43 44 44 44 44 43 42 42 42 42 42 43 44 44 43 42 41 41 41 39 37 35 33 31 31 32 33 35 35 35 35
32 33 34 35 36 37 38 39 40 41 42 43 43 43 43 42 41 39 38 38 38 38 39 41 42 42 42 41 41 40 38 36 35 34 33 32 32 33 34 36 37 36
35 36 37 38 39 40 41 41 41 42 42 42 42 41 41 40 38 36 34 33 33 33 34 36 38 40 41 41 41 40 38 36 34 34 34 33 32 32 34 36 37 37
37 38 40 41 42 43 42 42 42 42 42 42 41 39 39 38 37 35 33 32 32 31 31 33 34 37 39 40 41 41 39 37 34 34 34 34 32 32 33 35 37 37
36 37 39 40 42 44 43 42 42 41 41 41 40 39 37 37 36 35 34 33 33 32 31 31 32 34 36 38 40 42 41 39 37 35 35 34 33 33 33 34 36 37
35 36 36 37 39 41 42 42 41 40 39 39 39 38 37 37 37 36 36 36 35 34 33 32 32 33 34 36 38 40 41 41 39 37 36 35 34 34 34 34 36 37
34 34 34 35 36 38 39 39 38 37 37 37 37 37 37 37 37 37 38 38 37 36 35 34 33 33 33 34 35 37 39 41 40 39 38 37 36 35 35 35 36 38
33 33 33 34 35 36 37 36 36 36 35 35 35 36 36 36 37 37 38 38 38 37 37 36 36 34 34 34 34 34 36 39 40 41 40 40 38 37 36 36 37 38
33 34 35 36 37 37 36 35 35 34 34 34 34 34 35 35 36 36 37 37 38 38 37 37 37 36 35 35 34 34 35 37 38 40 41 41 41 39 39 38 38 38
35 37 38 39 39 38 37 35 34 33 33 32 32 33 33 33 34 35 36 36 37 37 37 37 37 36 36 35 35 35 35 36 36 38 40 41 42 41 41 40 40 40
38 39 40 41 40 39 37 35 34 33 32 31 31 32 32 33 34 34 35 36 37 37 38 37 37 36 36 35 35 35 36 36 36 36 38 40 42 42 42 42 41 41
42 41 42 42 41 39 36 34 33 32 31 31 31 32 32 33 34 35 36 36 37 37 37 37 37 36 35 35 34 35 36 37 37 37 37 39 41 42 43 44 43 43
43 43 43 42 41 39 36 34 32 31 31 32 32 33 34 34 35 36 37 37 37 37 37 37 36 36 35 35 34 34 36 37 38 38 38 39 40 42 44 45 45 45
44 44 43 41 39 38 36 34 32 32 32 32 33 35 36 36 37 38 38 38 38 37 37 37 37 36 36 36 35 35 35 38 39 39 40 40 40 42 44 45 46 46
45 44 42 39 37 37 36 35 33 33 33 33 34 35 37 38 38 38 38 37 37 37 37 37 37 37 36 37 37 36 36 38 40 40 41 41 41 42 43 44 46 46
44 43 41 38 37 36 36 35 35 34 34 34 35 35 36 37 37 37 37 36 37 37 37 38 38 37 37 37 37 37 37 39 41 42 42 42 42 42 43 43 45 46
42 40 39 38 37 36 36 35 35 35 35 35 36 36 36 36 36 36 36 36 37 37 38 38 38 38 38 38 37 37 37 39 41 43 43 43 43 43 43 43 43 45
39 39 38 37 37 36 35 34 34 34 34 35 36 36 36 36 36 37 37 37 37 38 38 39 39 39 38 38 38 37 36 37 40 42 44 44 43 43 43 43 43 44
38 38 38 38 37 36 35 34 33 33 33 34 35 36 36 36 37 37 38 38 38 38 39 39 39 39 38 38 38 37 37 37 39 41 43 44 43 43 43 43 44 44
38 38 38 37 36 35 34 33 33 33 33 33 35 35 35 36 36 37 37 38 38 38 39 40 39 38 37 36 36 37 38 37 38 40 43 44 43 43 43 43 44 44
38 38 38 36 35 34 34 33 33 33 33 34 35 36 35 35 35 36 36 37 38 38 39 39 38 36 35 35 35 36 38 38 38 39 42 43 43 42 42 43 43 44
38 37 37 36 35 34 34 34 34 34 34 35 36 36 36 35 35 35 36 37 37 37 37 37 37 35 35 35 35 35 37 38 38 39 41 43 42 41 41 42 43 43
37 36 35 35 35 35 35 35 35 35 35 35 35 36 36 36 35 36 36 35 35 35 35 35 35 35 34 35 34 34 36 37 38 39 41 42 41 40 40 41 42 42
36 36 35 36 36 36 37 37 36 36 35 35 35 35 35 36 36 36 36 35 34 34 34 34 34 34 33 33 34 34 34 35 37 39 40 40 40 39 39 40 41 41
Wind_Direction
270 273 275 275 275 276 276 277 278 278 279 279 278 278 277 276 275 274 273 272 272 272 272 272 271 271 270 270 269 268 267 267 268 265 262 259 256 252 250 248 247 247
274 275 277 278 278 279 279 280 280 279 279 279 278 278 277 276 274 273 272 271 270 269 269 269 269 268 269 269 269 268 268 270 270 268 265 264 262 257 253 252 250 248
278 278 279 281 282 283 283 282 282 282 282 281 281 280 278 277 275 273 272 271 270 269 268 267 266 265 266 266 267 266 267 268 268 265 262 260 259 256 254 254 252 249
285 287 289 290 290 291 290 288 286 285 285 284 284 283 282 279 277 275 274 273 273 271 269 266 264 263 263 264 264 264 264 265 265 265 263 261 259 256 252 252 253 252
294 296 296 297 297 296 294 292 290 288 286 285 284 284 283 281 278 276 275 275 276 274 271 267 264 263 261 261 262 263 262 261 262 263 263 262 260 257 253 251 252 253
297 298 298 298 297 296 295 293 291 289 287 286 284 284 283 281 279 277 277 277 279 278 274 270 266 264 262 260 260 261 262 261 260 260 261 261 259 258 256 253 252 252
293 294 294 295 295 295 295 293 291 289 287 286 285 284 283 282 281 281 281 281 280 280 277 274 270 267 264 262 261 261 262 261 260 259 258 259 258 257 255 253 251 250
291 290 290 291 293 294 294 293 291 289 287 286 285 284 284 283 283 283 284 283 283 282 280 278 275 272 269 266 263 262 261 261 260 259 258 257 256 254 252 250 250 249
290 290 291 293 295 296 296 294 292 289 288 287 285 284 283 283 283 282 283 284 284 284 284 282 279 276 273 270 267 264 262 260 258 257 256 255 254 253 250 248 248 249
293 296 299 300 301 301 300 296 293 290 289 288 286 284 282 282 281 281 282 283 283 284 283 282 280 277 274 272 270 268 265 261 258 255 255 254 253 253 251 248 247 248
300 304 306 307 307 306 303 299 293 291 289 289 288 286 284 283 282 282 282 281 282 282 281 280 280 278 275 272 270 269 267 264 260 256 254 254 253 251 250 249 248 247
308 310 310 310 310 309 306 301 295 291 289 289 289 288 286 285 284 282 282 281 281 281 281 280 280 278 276 274 271 269 268 267 264 260 256 254 252 250 249 249 249 249
312 311 310 310 310 308 306 302 296 292 291 290 289 288 287 286 285 284 283 282 281 281 281 281 281 279 277 275 272 270 268 267 266 263 259 255 253 251 249 248 248 248
311 310 309 309 308 308 306 303 298 294 291 290 289 288 287 287 287 286 285 283 282 282 282 281 281 280 278 275 272 270 269 267 266 264 261 257 253 251 249 248 247 247
308 307 307 307 307 307 306 304 300 296 292 290 289 289 289 288 288 287 285 284 283 282 282 281 280 280 280 277 273 269 267 266 265 264 262 259 254 251 249 248 247 246
306 305 305 305 305 305 304 303 300 296 292 290 290 290 290 290 289 287 287 286 284 283 282 281 281 281 280 279 276 271 267 265 263 262 261 259 256 252 249 247 247 246
304 304 304 304 303 303 302 301 298 296 294 292 291 291 291 290 290 290 289 288 286 284 283 282 282 281 280 278 276 273 269 266 263 262 260 259 257 253 250 247 246 246
303 304 303 302 302 302 301 299 297 295 294 293 292 292 291 291 291 291 290 289 287 285 283 282 281 281 280 278 276 274 270 267 264 262 260 258 257 254 252 248 246 245
303 303 302 302 302 302 300 298 296 295 293 292 292 292 291 291 291 291 290 289 287 285 283 282 281 280 279 278 276 273 270 267 265 263 261 259 257 255 252 250 247 245
303 302 301 301 301 301 300 298 297 295 294 293 293 292 292 292 291 291 290 290 289 287 285 283 282 282 281 278 275 271 267 265 263 262 261 259 257 256 253 250 248 246
302 302 301 301 301 299 298 298 298 297 296 296 295 294 293 293 292 292 291 290 289 288 286 285 284 283 281 278 274 270 266 262 260 260 260 259 258 256 254 250 248 247
302 303 302 301 300 298 298 298 298 298 298 297 296 295 295 294 293 293 292 291 290 288 287 287 286 284 281 278 274 271 267 262 259 258 259 259 258 256 254 251 248 247
303 303 302 300 299 298 297 298 298 298 298 297 296 295 295 295 295 294 293 291 290 288 287 286 284 282 279 276 273 270 268 264 259 257 257 258 257 256 254 251 248 247
302 301 300 299 298 297 298 298 299 299 298 297 296 295 295 295 295 294 293 292 290 289 286 284 283 281 279 277 272 269 268 266 261 257 256 257 257 255 253 251 248 247
299 298 298 298 298 298 298 298 299 299 299 297 296 295 295 295 295 295 294 293 292 290 288 285 283 283 282 280 275 269 266 266 263 258 255 255 255 254 252 250 247 246
297 297 297 297 298 299 298 298 298 299 299 298 296 295 295 295 295 295 295 294 294 293 290 287 285 285 283 280 276 271 268 266 263 258 255 254 253 252 251 249 247 246
Height
3159 3158 3157 3156 3155 3154 3153 3152 3151 3149 3148 3147 3147 3146 3146 3146 3145 3145 3143 3142 3142 3141 3141 3140 3141 3141 3140 3140 3140 3140 3142 3142 3142 3142 3142 3143 3144 3144 3143 3144 3145 3146
3156 3155 3154 3152 3151 3150 3149 3148 3146 3145 3144 3143 3142 3141 3140 3140 3139 3139 3138 3137 3137 3136 3136 3135 3135 3136 3135 3135 3135 3136 3138 3139 3138 3139 3138 3139 3140 3140 3140 3141 3142 3143
3152 3151 3150 3149 3147 3146 3145 3143 3142 3140 3139 3138 3137 3136 3135 3134 3133 3133 3132 3132 3131 3131 3131 3131 3131 3131 3131 3131 3130 3131 3133 3134 3134 3134 3134 3134 3135 3136 3137 3137 3138 3139
3149 3147 3146 3145 3143 3142 3140 3138 3137 3135 3134 3132 3131 3130 3129 3128 3128 3127 3127 3127 3126 3126 3126 3126 3126 3126 3126 3126 3126 3126 3128 3129 3129 3129 3129 3129 3130 3131 3132 3133 3133 3134
3144 3143 3141 3140 3138 3136 3134 3133 3131 3130 3128 3127 3126 3125 3123 3123 3123 3122 3122 3122 3121 3121 3121 3120 3121 3120 3121 3121 3121 3121 3123 3124 3124 3125 3124 3125 3126 3126 3127 3129 3129 3130
3140 3138 3137 3135 3133 3131 3129 3128 3126 3124 3123 3122 3121 3119 3118 3118 3117 3117 3117 3117 3117 3116 3116 3116 3116 3116 3116 3116 3117 3116 3117 3119 3120 3120 3119 3120 3122 3122 3123 3124 3125 3126
3137 3135 3133 3131 3128 3126 3124 3123 3121 3120 3118 3117 3116 3115 3114 3113 3112 3112 3112 3113 3113 3112 3112 3112 3112 3111 3111 3111 3111 3111 3112 3113 3115 3115 3115 3116 3117 3118 3118 3119 3120 3121
3134 3132 3130 3127 3124 3122 3119 3118 3116 3115 3114 3112 3111 3111 3110 3108 3108 3108 3107 3107 3107 3108 3108 3107 3107 3107 3107 3106 3106 3106 3107 3108 3109 3110 3111 3112 3112 3112 3113 3114 3115 3116
3130 3128 3126 3123 3120 3118 3115 3113 3112 3110 3109 3108 3107 3107 3106 3105 3104 3104 3103 3103 3103 3103 3103 3103 3103 3103 3102 3102 3102 3102 3102 3102 3103 3105 3106 3107 3107 3108 3109 3109 3110 3111
3126 3124 3121 3119 3116 3114 3111 3109 3108 3107 3106 3104 3103 3103 3102 3101 3101 3100 3099 3099 3098 3098 3098 3098 3097 3098 3098 3097 3097 3097 3097 3097 3098 3099 3100 3101 3102 3103 3104 3105 3105 3106
3121 3119 3116 3114 3112 3110 3108 3106 3104 3103 3102 3101 3100 3098 3098 3097 3097 3096 3095 3094 3094 3093 3093 3093 3093 3092 3092 3092 3092 3092 3092 3092 3092 3093 3095 3096 3097 3098 3099 3100 3100 3101
3117 3114 3112 3109 3107 3105 3103 3102 3100 3099 3098 3097 3096 3094 3093 3093 3092 3091 3091 3090 3089 3089 3088 3088 3088 3087 3087 3087 3087 3087 3087 3087 3087 3088 3089 3090 3091 3092 3094 3094 3095 3096
3112 3110 3108 3105 3103 3102 3100 3098 3096 3095 3094 3093 3091 3090 3089 3088 3088 3087 3086 3085 3084 3084 3083 3083 3083 3082 3082 3082 3082 3083 3082 3082 3082 3082 3083 3084 3085 3086 3088 3089 3089 3090
3108 3106 3104 3101 3099 3097 3096 3094 3092 3091 3089 3088 3087 3086 3085 3085 3083 3083 3082 3081 3080 3079 3078 3078 3078 3077 3077 3077 3077 3078 3077 3077 3077 3077 3077 3078 3079 3080 3081 3082 3083 3084
3103 3101 3099 3097 3095 3093 3091 3089 3088 3086 3085 3084 3083 3082 3081 3080 3079 3078 3076 3076 3075 3074 3073 3073 3072 3072 3072 3072 3072 3072 3072 3071 3071 3071 3071 3072 3073 3073 3075 3076 3077 3078
3098 3096 3094 3092 3090 3089 3087 3085 3084 3082 3081 3080 3079 3077 3076 3075 3074 3072 3071 3071 3070 3069 3068 3067 3067 3067 3067 3067 3066 3066 3066 3065 3065 3065 3065 3065 3066 3067 3068 3069 3071 3072
3093 3091 3089 3087 3086 3084 3083 3081 3079 3078 3077 3076 3074 3073 3072 3070 3068 3067 3066 3065 3064 3063 3063 3062 3062 3062 3062 3061 3061 3061 3061 3060 3059 3059 3059 3059 3060 3060 3061 3063 3065 3066
3089 3086 3084 3083 3081 3080 3078 3076 3075 3073 3072 3071 3069 3068 3066 3065 3063 3062 3061 3060 3059 3057 3057 3056 3056 3056 3056 3055 3055 3055 3055 3054 3052 3052 3052 3052 3053 3054 3055 3057 3058 3060
3084 3082 3080 3078 3077 3075 3073 3072 3070 3069 3067 3066 3064 3063 3061 3059 3058 3057 3055 3054 3053 3052 3051 3050 3050 3050 3050 3049 3049 3048 3048 3047 3046 3046 3045 3046 3047 3048 3049 3051 3052 3054
3080 3078 3075 3074 3072 3070 3068 3067 3065 3064 3062 3061 3059 3057 3056 3054 3053 3051 3050 3049 3047 3046 3045 3044 3044 3044 3044 3043 3042 3042 3042 3041 3040 3039 3039 3039 3041 3042 3043 3045 3046 3048
3075 3073 3071 3069 3068 3066 3064 3062 3061 3059 3058 3056 3054 3052 3050 3049 3047 3046 3044 3043 3042 3040 3039 3038 3037 3037 3037 3036 3036 3035 3035 3034 3034 3033 3032 3033 3034 3036 3037 3039 3041 3042
3071 3068 3066 3064 3063 3061 3059 3058 3056 3054 3053 3051 3049 3047 3045 3044 3042 3040 3039 3037 3036 3035 3033 3031 3031 3031 3031 3030 3029 3029 3028 3028 3027 3027 3026 3026 3027 3029 3031 3033 3035 3036
3066 3064 3061 3059 3058 3056 3054 3053 3051 3050 3048 3046 3043 3042 3040 3039 3037 3035 3034 3032 3030 3029 3027 3026 3025 3025 3025 3024 3023 3023 3021 3021 3021 3021 3020 3020 3021 3023 3025 3026 3029 3030
3061 3059 3056 3055 3053 3051 3050 3048 3046 3045 3043 3041 3038 3036 3035 3034 3032 3030 3028 3027 3025 3023 3022 3020 3019 3019 3019 3018 3017 3017 3016 3015 3015 3015 3014 3013 3015 3017 3019 3020 3023 3025
3057 3054 3052 3050 3048 3047 3045 3043 3042 3040 3038 3036 3034 3031 3030 3028 3027 3025 3023 3021 3019 3017 3016 3014 3013 3013 3012 3011 3010 3010 3009 3009 3008 3008 3008 3008 3009 3011 3013 3015 3017 3019
3052 3050 3048 3046 3044 3042 3040 3039 3037 3035 3033 3031 3029 3027 3025 3023 3021 3019 3017 3015 3014 3012 3010 3009 3007 3007 3006 3005 3004 3003 3003 3003 3002 3002 3002 3003 3004 3006 3007 3009 3011 3014